This is the latest recevied weather packets stored in our database for station/object KC9GSD. If no packets are shown the sender has not sent any weather packets the latest 10 day(s).
| Time | Temp. | Humidity | Pressure | Rain* | Wind** | Luminosity | Snow |
|---|---|---|---|---|---|---|---|
| 1778127836 | 17.78° C | 97% | 1012.4 hPa | 4.32 mm | - | 0 W/m² | - |
| 1778127532 | 17.78° C | 97% | 1012.3 hPa | 3.05 mm | - | 0 W/m² | - |
| 1778127229 | 17.78° C | 97% | 1013.1 hPa | 3.05 mm | - | 0 W/m² | - |
| 1778126927 | 17.78° C | 97% | 1012.5 hPa | 3.05 mm | - | 0 W/m² | - |
| 1778126622 | 17.78° C | 97% | 1012.3 hPa | 3.05 mm | - | 0 W/m² | - |
| 1778126319 | 17.78° C | 97% | 1011.8 hPa | 3.05 mm | - | 0 W/m² | - |
| 1778126014 | 17.78° C | 97% | 1012 hPa | 0 mm | - | 0 W/m² | - |
| 1778125712 | 17.78° C | 97% | 1012.3 hPa | 0 mm | - | 0 W/m² | - |
| 1778125408 | 17.78° C | 97% | 1011.8 hPa | 6.6 mm | - | 0 W/m² | - |
| 1778125107 | 17.78° C | 97% | 1011.8 hPa | 9.65 mm | - | 0 W/m² | - |
| 1778124804 | 17.78° C | 97% | 1012.1 hPa | 3.05 mm | - | 0 W/m² | - |
| 1778124501 | 17.78° C | 97% | 1012.4 hPa | 1.27 mm | - | 0 W/m² | - |
| 1778124197 | 17.78° C | 97% | 1012.5 hPa | 1.27 mm | - | 0 W/m² | - |
| 1778123894 | 17.78° C | 97% | 1012.6 hPa | 0 mm | - | 0 W/m² | - |
| 1778123591 | 17.78° C | 97% | 1012.6 hPa | 0 mm | - | 0 W/m² | - |
| 1778123287 | 17.78° C | 97% | 1012.5 hPa | 0 mm | - | 0 W/m² | - |
| 1778122985 | 17.78° C | 97% | 1012.3 hPa | 0 mm | - | 0 W/m² | - |
| 1778122682 | 17.78° C | 97% | 1011.8 hPa | 0 mm | - | 0 W/m² | - |
| 1778122379 | 17.78° C | 97% | 1011.8 hPa | 0 mm | - | 0 W/m² | - |
| 1778122077 | 17.78° C | 97% | 1012 hPa | 0 mm | - | 0 W/m² | - |
| 1778121774 | 17.78° C | 97% | 1012.1 hPa | 0 mm | - | 0 W/m² | - |
| 1778121469 | 17.78° C | 97% | 1011.9 hPa | 0 mm | - | 0 W/m² | - |
| 1778121166 | 17.78° C | 97% | 1012.2 hPa | 0 mm | - | 0 W/m² | - |
| 1778120864 | 17.78° C | 97% | 1012 hPa | 0 mm | - | 0 W/m² | - |
| 1778120560 | 17.78° C | 97% | 1012.1 hPa | 0 mm | - | 0 W/m² | - |
* Rain latest hour (hover to see other rain measurements)
** Current wind speed in m/s (hover to see current wind gust speed)